Gakona, AK

1:18 PM AKDT on September 27, 2016 (GMT -0800)
Gulkana

Weather History for PAGK - May, 2014

Change the Weather History Date:

Sunday, May 18, 2014

  Actual Average Record
Temperature  
Mean Temperature 52 °F -  
Max Temperature 62 °F 54 °F 74 °F (1993)
Min Temperature 39 °F 34 °F 22 °F (1992)
Degree Days  
Heating Degree Days 14    
Growing Degree Days 2 (Base 50)    
Moisture  
Dew Point 37 °F    
Average Humidity 73    
Maximum Humidity 93    
Minimum Humidity 39    
Precipitation  
Precipitation 0.16 in - - ()
Sea Level Pressure  
Sea Level Pressure 29.77 in    
Wind  
Wind Speed 6 mph (North)    
Max Wind Speed 17 mph    
Max Gust Speed 23 mph    
Visibility 9 miles    
Events Rain    
Averages and records for this station are not official NWS values.
T = Trace of Precipitation, MM = Missing Value Source: NWS Daily Summary

Daily Weather History Graph

Daily Weather History Graph

Search for Another Location

Airport or City:

Trip Planner

Search our weather history database for the weather conditions in past years. The results will help you decide how hot, cold, wet, or windy it might be!

Date:

Astronomy

May. 18, 2014 Rise Set
Actual Time 4:38 AM AKDT 10:40 PM AKDT
Civil Twilight 3:15 AM AKDT 12:05 AM AKDT
Nautical Twilight Sun does not set Sun does not set
Astronomical Twilight Sun does not set Sun does not set
Moon 1:29 AM AKDT (5/18) 8:57 AM AKDT (5/18)
Length of Visible Light 20h 49m
Length of Day
18h 02m
Waning Gibbous, 79% of the Moon is Illuminated
May 18
Waning Gibbous
May 21
Last Quarter
May 28
New
Jun 5
First Quarter
Jun 12
Full

Hourly Weather History & Observations

Time (AKDT) Temp. Windchill Dew Point Humidity Pressure Visibility Wind Dir Wind Speed Gust Speed Precip Events Conditions
12:53 AM 54.0 °F - 39.9 °F 59% 29.78 in 10.0 mi North 5.8 mph - N/A   Mostly Cloudy
1:53 AM 50.0 °F - 42.1 °F 74% 29.81 in 10.0 mi Variable 3.5 mph - 0.00 in Rain Light Rain
2:53 AM 48.0 °F - 43.0 °F 83% 29.82 in 10.0 mi NNE 5.8 mph - 0.00 in Rain Light Rain
3:53 AM 46.0 °F - 43.0 °F 89% 29.82 in 10.0 mi Calm Calm - 0.00 in Rain Light Rain
4:53 AM 46.0 °F 43.9 °F 44.1 °F 93% 29.81 in 10.0 mi WSW 4.6 mph - 0.01 in Rain Light Rain
5:53 AM 45.0 °F 42.6 °F 43.0 °F 93% 29.79 in 10.0 mi WNW 4.6 mph - 0.00 in   Overcast
6:53 AM 46.0 °F 43.1 °F 43.0 °F 89% 29.77 in 10.0 mi NW 5.8 mph - N/A   Overcast
7:53 AM 46.0 °F - 43.0 °F 89% 29.77 in 10.0 mi Calm Calm - 0.00 in   Overcast
8:27 AM 46.9 °F - 44.1 °F 90% 29.77 in 10.0 mi Calm Calm - 0.00 in Rain Light Rain
8:53 AM 46.0 °F 40.6 °F 41.0 °F 83% 29.77 in 10.0 mi North 11.5 mph - 0.00 in Rain Light Rain
9:53 AM 44.1 °F 41.5 °F 41.0 °F 89% 29.78 in 9.0 mi North 4.6 mph - 0.01 in Rain Light Rain
10:53 AM 43.0 °F 41.3 °F 39.9 °F 89% 29.79 in 4.0 mi NNW 3.5 mph - 0.03 in Rain Light Rain
11:36 AM 41.0 °F 39.0 °F 37.0 °F 86% 29.77 in 5.0 mi NNW 3.5 mph - 0.09 in Rain Light Rain
11:53 AM 42.1 °F - 39.0 °F 89% 29.80 in 5.0 mi Calm Calm - 0.11 in Rain Light Rain
12:07 PM 43.0 °F - 39.9 °F 89% 29.76 in 10.0 mi Calm Calm - 0.01 in Rain Light Rain
12:53 PM 45.0 °F - 39.9 °F 82% 29.78 in 10.0 mi Calm Calm - 0.01 in   Overcast
1:53 PM 44.1 °F 38.6 °F 39.9 °F 85% 29.78 in 10.0 mi NNE 10.4 mph - N/A   Overcast
2:53 PM 44.1 °F 38.1 °F 37.9 °F 79% 29.78 in 10.0 mi NNE 11.5 mph - N/A   Overcast
3:53 PM 46.9 °F - 36.0 °F 66% 29.76 in 10.0 mi NNE 12.7 mph - N/A   Overcast
4:53 PM 50.0 °F - 36.0 °F 59% 29.74 in 10.0 mi North 15.0 mph 21.9 mph N/A   Partly Cloudy
5:53 PM 51.1 °F - 32.0 °F 48% 29.73 in 10.0 mi North 9.2 mph 21.9 mph N/A   Scattered Clouds
6:53 PM 51.1 °F - 28.9 °F 43% 29.73 in 10.0 mi NNE 17.3 mph 23.0 mph N/A   Partly Cloudy
7:53 PM 48.0 °F - 27.0 °F 44% 29.73 in 10.0 mi North 11.5 mph - N/A   Clear
8:53 PM 48.0 °F - 28.0 °F 46% 29.73 in 10.0 mi North 13.8 mph - N/A   Clear
9:53 PM 45.0 °F 40.1 °F 28.0 °F 52% 29.73 in 10.0 mi NNW 9.2 mph 20.7 mph N/A   Clear
10:53 PM 42.1 °F 36.6 °F 30.0 °F 62% 29.74 in 10.0 mi NNW 9.2 mph - N/A   Clear
11:53 PM 39.0 °F 31.8 °F 27.0 °F 62% 29.75 in 10.0 mi NW 11.5 mph - N/A   Clear